When you browse on this site, cookies collect data to enhance your experience and personalize the content and advertising you see.
Visit our Privacy Policy to learn more. By continuing to use the site, you agree to this use of cookies and data.
  • In Latvia
  • List of Countries
  • For 7 days
  • Water Temperature
  • Weather Map
  • Weather Widgets
  • user-avatar
    Login

    Hourly Weather Kyahta

    Today, 23 August, Friday

    Time Temperature Precipitation Wind Pressure Humidity
    00:00 +17°C° 0 mm 0 mps 748 mmHg 83%
    01:00 +17°C° 0 mm 0 mps 748 mmHg 84%
    02:00 +17°C° 0 mm 0 mps 749 mmHg 84%
    03:00 +17°C° 0 mm 0 mps 749 mmHg 84%
    04:00 +17°C° 0 mm 0 mps 749 mmHg 83%
    05:00 +20°C° 0 mm 1 mps 749 mmHg 81%
    06:00 +20°C° 0 mm 1 mps 749 mmHg 80%
    07:00 +22°C° 0 mm 1 mps 749 mmHg 75%
    08:00 +23°C° 0 mm 2 mps 750 mmHg 71%
    09:00 +25°C° 0 mm 3 mps 750 mmHg 68%
    10:00 +25°C° 0.1 mm 4 mps 750 mmHg 70%
    11:00 +23°C° 0.1 mm 5 mps 750 mmHg 71%
    12:00 +23°C° 0.1 mm 6 mps 750 mmHg 73%
    13:00 +23°C° 0 mm 6 mps 750 mmHg 68%
    14:00 +23°C° 0 mm 6 mps 750 mmHg 63%
    15:00 +25°C° 0 mm 5 mps 751 mmHg 56%
    16:00 +23°C° 0 mm 5 mps 751 mmHg 59%
    17:00 +22°C° 0 mm 5 mps 751 mmHg 61%
    18:00 +21°C° 0 mm 4 mps 751 mmHg 64%
    19:00 +20°C° 0 mm 4 mps 751 mmHg 66%
    20:00 +19°C° 0 mm 4 mps 751 mmHg 69%
    21:00 +18°C° 0 mm 4 mps 751 mmHg 72%
    22:00 +17°C° 0 mm 3 mps 751 mmHg 73%
    23:00 +17°C° 0 mm 3 mps 751 mmHg 75%

    Tomorrow, 24 August, Saturday

    Time Temperature Precipitation Wind Pressure Humidity
    00:00 +16°C° 0 mm 3 mps 751 mmHg 77%
    01:00 +16°C° 0 mm 3 mps 751 mmHg 78%
    02:00 +16°C° 0 mm 3 mps 751 mmHg 79%
    03:00 +14°C° 0 mm 3 mps 751 mmHg 81%
    04:00 +14°C° 0 mm 3 mps 751 mmHg 81%
    05:00 +14°C° 0 mm 3 mps 751 mmHg 81%
    06:00 +15°C° 0 mm 2 mps 751 mmHg 81%
    07:00 +17°C° 0 mm 3 mps 751 mmHg 75%
    08:00 +18°C° 0 mm 3 mps 752 mmHg 70%
    09:00 +20°C° 0 mm 3 mps 752 mmHg 64%
    10:00 +21°C° 0 mm 3 mps 751 mmHg 59%
    11:00 +21°C° 0 mm 3 mps 751 mmHg 53%
    12:00 +22°C° 0 mm 3 mps 751 mmHg 48%
    13:00 +24°C° 0 mm 3 mps 751 mmHg 47%
    14:00 +24°C° 0 mm 3 mps 751 mmHg 46%
    15:00 +24°C° 0 mm 3 mps 750 mmHg 45%
    16:00 +22°C° 0 mm 3 mps 750 mmHg 50%
    17:00 +21°C° 0 mm 2 mps 750 mmHg 55%
    18:00 +20°C° 0 mm 2 mps 749 mmHg 60%
    19:00 +19°C° 0 mm 2 mps 749 mmHg 62%
    20:00 +18°C° 0 mm 1 mps 749 mmHg 64%
    21:00 +16°C° 0 mm 1 mps 749 mmHg 66%
    22:00 +16°C° 0 mm 1 mps 749 mmHg 67%
    23:00 +15°C° 0 mm 1 mps 749 mmHg 68%

    Day after tomorrow, 25 August, Sunday

    Time Temperature Precipitation Wind Pressure Humidity
    00:00 +15°C° 0 mm 1 mps 748 mmHg 69%
    01:00 +15°C° 0 mm 1 mps 748 mmHg 71%
    02:00 +14°C° 0 mm 1 mps 748 mmHg 72%
    03:00 +14°C° 0 mm 1 mps 748 mmHg 74%
    04:00 +14°C° 0 mm 1 mps 748 mmHg 75%
    05:00 +14°C° 0 mm 2 mps 747 mmHg 75%
    06:00 +15°C° 0 mm 2 mps 747 mmHg 76%
    07:00 +17°C° 0 mm 2 mps 747 mmHg 70%
    08:00 +19°C° 0 mm 3 mps 747 mmHg 65%
    09:00 +21°C° 0 mm 4 mps 747 mmHg 59%
    10:00 +22°C° 0 mm 4 mps 747 mmHg 57%
    11:00 +22°C° 0 mm 4 mps 746 mmHg 56%
    12:00 +23°C° 0 mm 5 mps 746 mmHg 54%
    13:00 +23°C° 0.1 mm 5 mps 746 mmHg 53%
    14:00 +23°C° 0.1 mm 6 mps 746 mmHg 52%
    15:00 +22°C° 0.1 mm 6 mps 746 mmHg 51%
    16:00 +21°C° 0 mm 6 mps 747 mmHg 56%
    17:00 +20°C° 0 mm 6 mps 747 mmHg 61%
    18:00 +17°C° 0 mm 5 mps 747 mmHg 67%
    19:00 +16°C° 0 mm 5 mps 747 mmHg 70%
    20:00 +14°C° 0 mm 4 mps 748 mmHg 73%
    21:00 +13°C° 0 mm 4 mps 748 mmHg 77%
    22:00 +12°C° 0 mm 4 mps 748 mmHg 80%
    23:00 +12°C° 0 mm 4 mps 748 mmHg 84%

    26 August, Monday

    Time Temperature Precipitation Wind Pressure Humidity
    00:00 +12°C° 0 mm 4 mps 749 mmHg 87%
    01:00 +12°C° 0 mm 4 mps 749 mmHg 88%
    02:00 +12°C° 0 mm 5 mps 749 mmHg 88%
    03:00 +12°C° 0 mm 5 mps 750 mmHg 88%
    04:00 +12°C° 0 mm 5 mps 750 mmHg 87%
    05:00 +10°C° 0 mm 5 mps 750 mmHg 85%
    06:00 +10°C° 0 mm 5 mps 750 mmHg 83%
    07:00 +13°C° 0 mm 5 mps 750 mmHg 78%
    08:00 +14°C° 0 mm 5 mps 751 mmHg 73%
    09:00 +15°C° 0 mm 5 mps 751 mmHg 68%
    10:00 +16°C° 0 mm 6 mps 751 mmHg 63%
    11:00 +17°C° 0 mm 6 mps 751 mmHg 57%
    12:00 +19°C° 0 mm 6 mps 751 mmHg 51%
    13:00 +19°C° 0 mm 5 mps 751 mmHg 51%
    14:00 +19°C° 0 mm 5 mps 751 mmHg 50%
    15:00 +19°C° 0 mm 4 mps 751 mmHg 50%
    16:00 +18°C° 0 mm 4 mps 751 mmHg 54%
    17:00 +17°C° 0 mm 3 mps 751 mmHg 59%
    18:00 +17°C° 0 mm 2 mps 751 mmHg 64%
    19:00 +15°C° 0 mm 2 mps 750 mmHg 68%
    20:00 +14°C° 0 mm 1 mps 750 mmHg 72%
    21:00 +13°C° 0 mm 1 mps 750 mmHg 77%
    22:00 +12°C° 0 mm 1 mps 750 mmHg 78%
    23:00 +12°C° 0 mm 1 mps 750 mmHg 80%

    27 August, Tuesday

    Time Temperature Precipitation Wind Pressure Humidity
    00:00 +12°C° 0 mm 1 mps 750 mmHg 82%
    01:00 +10°C° 0 mm 2 mps 749 mmHg 84%
    02:00 +10°C° 0 mm 2 mps 749 mmHg 85%
    03:00 +10°C° 0 mm 3 mps 748 mmHg 87%
    04:00 +10°C° 0 mm 3 mps 748 mmHg 85%
    05:00 +11°C° 0 mm 3 mps 748 mmHg 82%
    06:00 +11°C° 0 mm 3 mps 747 mmHg 80%
    07:00 +13°C° 0 mm 4 mps 747 mmHg 73%
    08:00 +15°C° 0 mm 5 mps 746 mmHg 66%
    09:00 +17°C° 0 mm 6 mps 746 mmHg 59%
    10:00 +19°C° 0 mm 6 mps 745 mmHg 57%
    11:00 +19°C° 0 mm 6 mps 745 mmHg 55%
    12:00 +20°C° 0 mm 7 mps 744 mmHg 53%
    13:00 +20°C° 0.2 mm 7 mps 743 mmHg 56%
    14:00 +20°C° 0.2 mm 6 mps 743 mmHg 59%
    15:00 +19°C° 0.2 mm 6 mps 742 mmHg 62%
    16:00 +19°C° 0.4 mm 5 mps 741 mmHg 66%
    17:00 +17°C° 0.4 mm 5 mps 740 mmHg 70%
    18:00 +17°C° 0.4 mm 4 mps 740 mmHg 75%
    19:00 +16°C° 2.5 mm 5 mps 739 mmHg 80%
    20:00 +15°C° 2.5 mm 5 mps 738 mmHg 85%
    21:00 +14°C° 2.5 mm 6 mps 738 mmHg 90%
    22:00 +13°C° 0.7 mm 5 mps 737 mmHg 91%
    23:00 +13°C° 0.7 mm 5 mps 737 mmHg 91%

    28 August, Wednesday

    Time Temperature Precipitation Wind Pressure Humidity
    00:00 +12°C° 0.7 mm 4 mps 737 mmHg 92%
    01:00 +10°C° 0.8 mm 5 mps 737 mmHg 91%
    02:00 +10°C° 0.8 mm 6 mps 737 mmHg 89%
    03:00 +9°C° 0.8 mm 7 mps 736 mmHg 88%
    04:00 +9°C° 0.1 mm 8 mps 737 mmHg 86%
    05:00 +7°C° 0.1 mm 8 mps 737 mmHg 84%
    06:00 +6°C° 0.1 mm 9 mps 737 mmHg 81%
    07:00 +6°C° 0 mm 9 mps 738 mmHg 77%
    08:00 +6°C° 0 mm 9 mps 738 mmHg 73%
    09:00 +6°C° 0 mm 10 mps 739 mmHg 68%
    10:00 +6°C° 0 mm 9 mps 739 mmHg 70%
    11:00 +6°C° 0 mm 9 mps 739 mmHg 71%
    12:00 +6°C° 0 mm 9 mps 740 mmHg 72%
    13:00 +7°C° 0 mm 9 mps 740 mmHg 71%
    14:00 +7°C° 0 mm 9 mps 740 mmHg 71%
    15:00 +8°C° 0 mm 9 mps 740 mmHg 70%
    16:00 +8°C° 0 mm 9 mps 740 mmHg 71%
    17:00 +7°C° 0 mm 9 mps 740 mmHg 71%
    18:00 +7°C° 0 mm 8 mps 740 mmHg 71%
    19:00 +7°C° 0.1 mm 8 mps 740 mmHg 74%
    20:00 +7°C° 0.1 mm 8 mps 740 mmHg 76%
    21:00 +7°C° 0.1 mm 8 mps 740 mmHg 79%
    22:00 +6°C° 0 mm 8 mps 740 mmHg 79%
    23:00 +6°C° 0 mm 7 mps 740 mmHg 80%
    Show more